Time,TemperatureF,DewpointF,PressureIn,WindDirection,WindDirectionDegrees,WindSpeedMPH,WindSpeedGustMPH,Humidity,HourlyPrecipIn,Conditions,Clouds,dailyrainin,SolarRadiationWatts/m^2,SoftwareType,DateUTC
2013-04-26 00:02:00,32.0,22.0,-100.00,WNW,290,0.0,4.0,67,0.00,,,0.17,0.000000,,2013-04-26 05:02:00,
2013-04-26 00:12:00,32.0,22.0,-100.00,WNW,290,0.0,4.0,67,0.00,,,0.17,0.000000,,2013-04-26 05:12:00,
2013-04-26 00:32:00,30.0,23.0,-100.00,WNW,282,0.0,0.0,75,0.00,,,0.17,0.000000,,2013-04-26 05:32:00,
2013-04-26 00:42:00,30.0,23.0,-100.00,WNW,282,0.0,0.0,75,0.00,,,0.17,0.000000,,2013-04-26 05:42:00,
2013-04-26 00:52:00,30.0,23.0,-100.00,WNW,282,0.0,0.0,75,0.00,,,0.17,0.000000,,2013-04-26 05:52:00,
2013-04-26 01:02:00,30.0,23.0,-100.00,WNW,282,0.0,0.0,75,0.00,,,0.17,0.000000,,2013-04-26 06:02:00,
2013-04-26 01:11:00,30.0,23.0,-100.00,WNW,282,0.0,0.0,75,0.00,,,0.17,0.000000,,2013-04-26 06:11:00,
2013-04-26 01:32:00,27.0,23.0,-100.00,WSW,245,0.0,0.0,83,0.00,,,-99.99,0.000000,,2013-04-26 06:32:00,
2013-04-26 01:42:00,27.0,23.0,-100.00,WSW,245,0.0,0.0,83,0.00,,,-99.99,0.000000,,2013-04-26 06:42:00,
2013-04-26 01:52:00,27.0,23.0,-100.00,WSW,245,0.0,0.0,83,0.00,,,-99.99,0.000000,,2013-04-26 06:52:00,
2013-04-26 02:01:00,27.0,23.0,-100.00,WSW,245,0.0,0.0,83,0.00,,,-99.99,0.000000,,2013-04-26 07:01:00,
2013-04-26 02:11:00,27.0,23.0,-100.00,WSW,245,0.0,0.0,83,0.00,,,-99.99,0.000000,,2013-04-26 07:11:00,
2013-04-26 02:32:00,27.0,24.0,-100.00,NNE,22,0.0,0.0,88,0.00,,,0.17,0.000000,,2013-04-26 07:32:00,
2013-04-26 02:42:00,27.0,24.0,-100.00,NNE,22,0.0,0.0,88,0.00,,,0.17,0.000000,,2013-04-26 07:42:00,
2013-04-26 02:52:00,27.0,24.0,-100.00,NNE,22,0.0,0.0,88,0.00,,,0.17,0.000000,,2013-04-26 07:52:00,
2013-04-26 03:02:00,27.0,24.0,-100.00,NNE,22,0.0,0.0,88,0.00,,,0.17,0.000000,,2013-04-26 08:02:00,
2013-04-26 03:11:00,27.0,24.0,-100.00,NNE,22,0.0,0.0,88,0.00,,,0.17,0.000000,,2013-04-26 08:11:00,
2013-04-26 03:32:00,27.0,24.0,-100.00,North,0,0.0,0.0,89,0.00,,,-99.99,0.000000,,2013-04-26 08:32:00,
2013-04-26 03:42:00,27.0,24.0,-100.00,North,0,0.0,0.0,89,0.00,,,-99.99,0.000000,,2013-04-26 08:42:00,
2013-04-26 03:52:00,27.0,24.0,-100.00,North,0,0.0,0.0,89,0.00,,,-99.99,0.000000,,2013-04-26 08:52:00,
2013-04-26 04:01:00,27.0,24.0,-100.00,North,0,0.0,0.0,89,0.00,,,-99.99,0.000000,,2013-04-26 09:01:00,
2013-04-26 04:11:00,27.0,24.0,-100.00,North,0,0.0,0.0,89,0.00,,,-99.99,0.000000,,2013-04-26 09:11:00,
2013-04-26 04:33:00,27.0,25.0,-100.00,North,6,0.0,0.0,91,0.00,,,-99.99,0.000000,,2013-04-26 09:33:00,
2013-04-26 04:43:00,27.0,25.0,-100.00,North,6,0.0,0.0,91,0.00,,,-99.99,0.000000,,2013-04-26 09:43:00,
2013-04-26 04:53:00,27.0,25.0,-100.00,North,6,0.0,0.0,91,0.00,,,-99.99,0.000000,,2013-04-26 09:53:00,
2013-04-26 05:03:00,27.0,25.0,-100.00,North,6,0.0,0.0,91,0.00,,,-99.99,0.000000,,2013-04-26 10:03:00,
2013-04-26 05:12:00,27.0,25.0,-100.00,North,6,0.0,0.0,91,0.00,,,-99.99,0.000000,,2013-04-26 10:12:00,
2013-04-26 05:33:00,27.0,25.0,-100.00,NNE,12,0.0,0.0,91,0.00,,,-99.99,0.000000,,2013-04-26 10:33:00,
2013-04-26 05:42:00,27.0,25.0,-100.00,NNE,12,0.0,0.0,91,0.00,,,-99.99,0.000000,,2013-04-26 10:42:00,
2013-04-26 05:52:00,27.0,25.0,-100.00,NNE,12,0.0,0.0,91,0.00,,,-99.99,0.000000,,2013-04-26 10:52:00,
2013-04-26 06:02:00,27.0,25.0,-100.00,NNE,12,0.0,0.0,91,0.00,,,-99.99,0.000000,,2013-04-26 11:02:00,
2013-04-26 06:11:00,27.0,25.0,-100.00,NNE,12,0.0,0.0,91,0.00,,,-99.99,0.000000,,2013-04-26 11:11:00,
2013-04-26 06:32:00,32.0,26.0,-100.00,South,184,2.0,4.0,77,0.00,,,0.17,2.000000,,2013-04-26 11:32:00,
2013-04-26 06:42:00,32.0,26.0,-100.00,South,184,2.0,4.0,77,0.00,,,0.17,2.000000,,2013-04-26 11:42:00,
2013-04-26 06:52:00,32.0,26.0,-100.00,South,184,2.0,4.0,77,0.00,,,0.17,2.000000,,2013-04-26 11:52:00,
2013-04-26 07:01:00,32.0,26.0,-100.00,South,184,2.0,4.0,77,0.00,,,0.17,2.000000,,2013-04-26 12:01:00,
2013-04-26 07:11:00,32.0,26.0,-100.00,South,184,2.0,4.0,77,0.00,,,0.17,2.000000,,2013-04-26 12:11:00,
2013-04-26 07:32:00,33.0,28.0,-100.00,SSW,198,1.0,3.0,81,0.00,,,-99.99,26.000000,,2013-04-26 12:32:00,
2013-04-26 07:42:00,33.0,28.0,-100.00,SSW,198,1.0,3.0,81,0.00,,,-99.99,26.000000,,2013-04-26 12:42:00,
2013-04-26 07:52:00,33.0,28.0,-100.00,SSW,198,1.0,3.0,81,0.00,,,-99.99,26.000000,,2013-04-26 12:52:00,
2013-04-26 08:01:00,33.0,28.0,-100.00,SSW,198,1.0,3.0,81,0.00,,,-99.99,26.000000,,2013-04-26 13:01:00,
2013-04-26 08:11:00,33.0,28.0,-100.00,SSW,198,1.0,3.0,81,0.00,,,-99.99,26.000000,,2013-04-26 13:11:00,
2013-04-26 08:32:00,33.0,31.0,-100.00,ESE,104,2.0,4.0,92,0.04,,,0.21,18.000000,,2013-04-26 13:32:00,
2013-04-26 08:42:00,33.0,31.0,-100.00,ESE,104,2.0,4.0,92,0.04,,,0.21,18.000000,,2013-04-26 13:42:00,
2013-04-26 08:52:00,33.0,31.0,-100.00,ESE,104,2.0,4.0,92,0.04,,,0.21,18.000000,,2013-04-26 13:52:00,
2013-04-26 09:01:00,33.0,31.0,-100.00,ESE,104,2.0,4.0,92,0.04,,,0.21,18.000000,,2013-04-26 14:01:00,
2013-04-26 09:11:00,33.0,31.0,-100.00,ESE,104,2.0,4.0,92,0.04,,,0.21,18.000000,,2013-04-26 14:11:00,
2013-04-26 09:42:00,34.0,32.0,-100.00,ESE,108,2.0,4.0,94,0.00,,,0.09,39.000000,,2013-04-26 14:42:00,
2013-04-26 09:52:00,34.0,32.0,-100.00,ESE,108,2.0,4.0,94,0.00,,,0.09,39.000000,,2013-04-26 14:52:00,
2013-04-26 10:01:00,34.0,32.0,-100.00,ESE,108,2.0,4.0,94,0.00,,,0.09,39.000000,,2013-04-26 15:01:00,
2013-04-26 10:12:00,34.0,32.0,-100.00,ESE,108,2.0,4.0,94,0.00,,,0.09,39.000000,,2013-04-26 15:12:00,
2013-04-26 10:33:00,37.0,34.0,-100.00,SE,135,3.0,10.0,89,0.01,,,-99.99,116.000000,,2013-04-26 15:33:00,
2013-04-26 10:43:00,37.0,34.0,-100.00,SE,135,3.0,10.0,89,0.01,,,-99.99,116.000000,,2013-04-26 15:43:00,
2013-04-26 10:53:00,37.0,34.0,-100.00,SE,135,3.0,10.0,89,0.01,,,-99.99,116.000000,,2013-04-26 15:53:00,
2013-04-26 11:03:00,37.0,34.0,-100.00,SE,135,3.0,10.0,89,0.01,,,-99.99,116.000000,,2013-04-26 16:03:00,
2013-04-26 11:12:00,37.0,34.0,-100.00,SE,135,3.0,10.0,89,0.01,,,-99.99,116.000000,,2013-04-26 16:12:00,
2013-04-26 11:33:00,41.0,37.0,-100.00,SSE,147,4.0,10.0,85,0.00,,,0.05,286.000000,,2013-04-26 16:33:00,
2013-04-26 11:42:00,41.0,37.0,-100.00,SSE,147,4.0,10.0,85,0.00,,,0.05,286.000000,,2013-04-26 16:42:00,
2013-04-26 11:53:00,41.0,37.0,-100.00,SSE,147,4.0,10.0,85,0.00,,,0.05,286.000000,,2013-04-26 16:53:00,
2013-04-26 12:02:00,41.0,37.0,-100.00,SSE,147,4.0,10.0,85,0.00,,,0.05,286.000000,,2013-04-26 17:02:00,
2013-04-26 12:12:00,41.0,37.0,-100.00,SSE,147,4.0,10.0,85,0.00,,,0.05,286.000000,,2013-04-26 17:12:00,
2013-04-26 12:42:00,49.0,37.0,-100.00,South,179,7.0,14.0,63,0.00,,,0.05,757.000000,,2013-04-26 17:42:00,
2013-04-26 12:52:00,49.0,37.0,-100.00,South,179,7.0,14.0,63,0.00,,,0.05,757.000000,,2013-04-26 17:52:00,
2013-04-26 13:02:00,49.0,37.0,-100.00,South,179,7.0,14.0,63,0.00,,,0.05,757.000000,,2013-04-26 18:02:00,
2013-04-26 13:12:00,49.0,37.0,-100.00,South,179,7.0,14.0,63,0.00,,,0.05,757.000000,,2013-04-26 18:12:00,
2013-04-26 13:33:00,57.0,35.0,-100.00,SSW,203,8.0,16.0,43,0.00,,,0.05,905.000000,,2013-04-26 18:33:00,
2013-04-26 13:42:00,57.0,35.0,-100.00,SSW,203,8.0,16.0,43,0.00,,,0.05,905.000000,,2013-04-26 18:42:00,
2013-04-26 13:52:00,57.0,35.0,-100.00,SSW,203,8.0,16.0,43,0.00,,,0.05,905.000000,,2013-04-26 18:52:00,
2013-04-26 14:01:00,57.0,35.0,-100.00,SSW,203,8.0,16.0,43,0.00,,,0.05,905.000000,,2013-04-26 19:01:00,
2013-04-26 14:12:00,57.0,35.0,-100.00,SSW,203,8.0,16.0,43,0.00,,,0.05,905.000000,,2013-04-26 19:12:00,
2013-04-26 14:32:00,60.0,32.0,-100.00,SW,218,11.0,21.0,35,0.00,,,0.05,793.000000,,2013-04-26 19:32:00,
2013-04-26 14:42:00,60.0,32.0,-100.00,SW,218,11.0,21.0,35,0.00,,,0.05,793.000000,,2013-04-26 19:42:00,
2013-04-26 14:52:00,60.0,32.0,-100.00,SW,218,11.0,21.0,35,0.00,,,0.05,793.000000,,2013-04-26 19:52:00,
2013-04-26 15:02:00,60.0,32.0,-100.00,SW,218,11.0,21.0,35,0.00,,,0.05,793.000000,,2013-04-26 20:02:00,
2013-04-26 15:11:00,60.0,32.0,-100.00,SW,218,11.0,21.0,35,0.00,,,0.05,793.000000,,2013-04-26 20:11:00,
2013-04-26 15:42:00,62.0,33.0,-100.00,SW,222,10.0,19.0,34,0.00,,,0.05,614.000000,,2013-04-26 20:42:00,
2013-04-26 15:52:00,62.0,33.0,-100.00,SW,222,10.0,19.0,34,0.00,,,0.05,614.000000,,2013-04-26 20:52:00,
2013-04-26 16:02:00,62.0,33.0,-100.00,SW,222,10.0,19.0,34,0.00,,,0.05,614.000000,,2013-04-26 21:02:00,
2013-04-26 16:11:00,62.0,33.0,-100.00,SW,222,10.0,19.0,34,0.00,,,0.05,614.000000,,2013-04-26 21:11:00,
2013-04-26 16:33:00,64.0,34.0,-100.00,SW,216,8.0,18.0,32,0.00,,,0.05,679.000000,,2013-04-26 21:33:00,
2013-04-26 16:42:00,64.0,34.0,-100.00,SW,216,8.0,18.0,32,0.00,,,0.05,679.000000,,2013-04-26 21:42:00,
2013-04-26 16:53:00,64.0,34.0,-100.00,SW,216,8.0,18.0,32,0.00,,,0.05,679.000000,,2013-04-26 21:53:00,
2013-04-26 17:02:00,64.0,34.0,-100.00,SW,216,8.0,18.0,32,0.00,,,0.05,679.000000,,2013-04-26 22:02:00,
2013-04-26 17:12:00,64.0,34.0,-100.00,SW,216,8.0,18.0,32,0.00,,,0.05,679.000000,,2013-04-26 22:12:00,
2013-04-26 17:33:00,65.0,35.0,-100.00,WSW,255,5.0,14.0,33,0.00,,,0.05,499.000000,,2013-04-26 22:33:00,
2013-04-26 17:42:00,65.0,35.0,-100.00,WSW,255,5.0,14.0,33,0.00,,,0.05,499.000000,,2013-04-26 22:42:00,
2013-04-26 17:52:00,65.0,35.0,-100.00,WSW,255,5.0,14.0,33,0.00,,,0.05,499.000000,,2013-04-26 22:52:00,
2013-04-26 18:02:00,65.0,35.0,-100.00,WSW,255,5.0,14.0,33,0.00,,,0.05,499.000000,,2013-04-26 23:02:00,
2013-04-26 18:11:00,65.0,35.0,-100.00,WSW,255,5.0,14.0,33,0.00,,,0.05,499.000000,,2013-04-26 23:11:00,
2013-04-26 18:32:00,65.0,36.0,-100.00,West,267,5.0,13.0,34,0.00,,,0.05,285.000000,,2013-04-26 23:32:00,
2013-04-26 18:42:00,65.0,36.0,-100.00,West,267,5.0,13.0,34,0.00,,,0.05,285.000000,,2013-04-26 23:42:00,
2013-04-26 18:52:00,65.0,36.0,-100.00,West,267,5.0,13.0,34,0.00,,,0.05,285.000000,,2013-04-26 23:52:00,
2013-04-26 19:01:00,65.0,36.0,-100.00,West,267,5.0,13.0,34,0.00,,,0.05,285.000000,,2013-04-27 00:01:00,
2013-04-26 19:11:00,65.0,36.0,-100.00,West,267,5.0,13.0,34,0.00,,,0.05,285.000000,,2013-04-27 00:11:00,
2013-04-26 19:32:00,63.0,36.0,-100.00,WNW,299,3.0,11.0,36,0.00,,,0.05,162.000000,,2013-04-27 00:32:00,
2013-04-26 19:42:00,63.0,36.0,-100.00,WNW,299,3.0,11.0,36,0.00,,,0.05,162.000000,,2013-04-27 00:42:00,
2013-04-26 19:52:00,63.0,36.0,-100.00,WNW,299,3.0,11.0,36,0.00,,,0.05,162.000000,,2013-04-27 00:52:00,
2013-04-26 20:01:00,63.0,36.0,-100.00,WNW,299,3.0,11.0,36,0.00,,,0.05,162.000000,,2013-04-27 01:01:00,
2013-04-26 20:12:00,63.0,36.0,-100.00,WNW,299,3.0,11.0,36,0.00,,,0.05,162.000000,,2013-04-27 01:12:00,
2013-04-26 20:42:00,53.0,36.0,-100.00,East,96,3.0,6.0,53,0.00,,,0.05,16.000000,,2013-04-27 01:42:00,
2013-04-26 20:52:00,53.0,36.0,-100.00,East,96,3.0,6.0,53,0.00,,,0.05,16.000000,,2013-04-27 01:52:00,
2013-04-26 21:01:00,53.0,36.0,-100.00,East,96,3.0,6.0,53,0.00,,,0.05,16.000000,,2013-04-27 02:01:00,
2013-04-26 21:11:00,53.0,36.0,-100.00,East,96,3.0,6.0,53,0.00,,,0.05,16.000000,,2013-04-27 02:11:00,
2013-04-26 21:42:00,46.0,37.0,-100.00,NE,34,0.0,4.0,72,0.00,,,0.05,0.000000,,2013-04-27 02:42:00,
2013-04-26 21:52:00,46.0,37.0,-100.00,NE,34,0.0,4.0,72,0.00,,,0.05,0.000000,,2013-04-27 02:52:00,
2013-04-26 22:02:00,46.0,37.0,-100.00,NE,34,0.0,4.0,72,0.00,,,0.05,0.000000,,2013-04-27 03:02:00,
2013-04-26 22:11:00,46.0,37.0,-100.00,NE,34,0.0,4.0,72,0.00,,,0.05,0.000000,,2013-04-27 03:11:00,
2013-04-26 22:43:00,41.0,36.0,-100.00,West,262,0.0,2.0,83,0.00,,,0.05,0.000000,,2013-04-27 03:43:00,
2013-04-26 22:53:00,41.0,36.0,-100.00,West,262,0.0,2.0,83,0.00,,,0.05,0.000000,,2013-04-27 03:53:00,
2013-04-26 23:03:00,41.0,36.0,-100.00,West,262,0.0,2.0,83,0.00,,,0.05,0.000000,,2013-04-27 04:03:00,
2013-04-26 23:12:00,41.0,36.0,-100.00,West,262,0.0,2.0,83,0.00,,,0.05,0.000000,,2013-04-27 04:12:00,
2013-04-26 23:43:00,38.0,35.0,-100.00,WNW,291,0.0,2.0,88,0.00,,,0.05,0.000000,,2013-04-27 04:43:00,
2013-04-26 23:53:00,38.0,35.0,-100.00,WNW,291,0.0,2.0,88,0.00,,,0.05,0.000000,,2013-04-27 04:53:00,